Weather History for Goshen, IN

Change the Weather History Date:

Tuesday, May 6, 2014

  Actual Average Record
Temperature  
Mean Temperature 53 °F -  
Max Temperature 69 °F 69 °F 88 °F (1949)
Min Temperature 37 °F 46 °F 28 °F (1968)
Degree Days  
Heating Degree Days 12    
Growing Degree Days 3 (Base 50)    
Moisture  
Dew Point 38 °F    
Average Humidity 51    
Maximum Humidity 79    
Minimum Humidity 37    
Precipitation  
Precipitation 0.00 in - - ()
Sea Level Pressure  
Sea Level Pressure 29.99 in    
Wind  
Wind Speed 10 mph (East)    
Max Wind Speed 18 mph    
Max Gust Speed 25 mph    
Visibility 10 miles    
Events      
Averages and records for this station are not official NWS values.
T = Trace of Precipitation, MM = Missing Value Source: NWS Daily Summary

Daily Weather History Graph

Daily Weather History Graph

Search for Another Location

Airport:

Trip Planner

Search our weather history database for the weather conditions in past years. The results will help you decide how hot, cold, wet, or windy it might be!

Date:

Astronomy

May. 06, 2014 Rise Set
Actual Time 6:33 AM EDT 8:46 PM EDT
Civil Twilight 6:03 AM EDT 9:17 PM EDT
Nautical Twilight 5:25 AM EDT 9:55 PM EDT
Astronomical Twilight 4:44 AM EDT 10:36 PM EDT
Moon 12:50 PM EDT (5/6) 2:04 AM EDT (5/6)
Length of Visible Light 15h 13m
Length of Day
14h 12m
Waxing Crescent, 46% of the Moon is Illuminated
May 6
Waxing Crescent
May 6
First Quarter
May 14
Full
May 21
Last Quarter
May 28
New

Hourly Weather History & Observations

Time (EDT) Temp. Windchill Dew Point Humidity Pressure Visibility Wind Dir Wind Speed Gust Speed Precip Events Conditions
12:53 AM 44.1 °F 40.8 °F 35.1 °F 71% 29.99 in 10.0 mi ENE 5.8 mph - N/A   Clear
2:53 AM 42.1 °F - 34.0 °F 73% 29.99 in 10.0 mi Calm Calm - N/A   Clear
3:53 AM 37.9 °F 33.5 °F 32.0 °F 79% 29.99 in 10.0 mi ENE 5.8 mph - N/A   Clear
7:53 AM 45.0 °F 41.8 °F 37.0 °F 74% 30.04 in 10.0 mi East 5.8 mph - N/A   Clear
8:53 AM 50.0 °F - 39.9 °F 68% 30.04 in 10.0 mi East 11.5 mph - N/A   Clear
10:53 AM 57.9 °F - 39.9 °F 51% 30.04 in 10.0 mi East 17.3 mph - N/A   Clear
11:53 AM 61.0 °F - 39.9 °F 46% 30.04 in 10.0 mi ESE 13.8 mph 24.2 mph N/A   Clear
12:53 PM 63.0 °F - 39.9 °F 43% 30.02 in 10.0 mi East 16.1 mph 23.0 mph N/A   Clear
1:53 PM 64.9 °F - 41.0 °F 42% 30.01 in 10.0 mi East 15.0 mph - N/A   Clear
2:53 PM 66.0 °F - 42.1 °F 42% 29.99 in 10.0 mi East 15.0 mph - N/A   Clear
3:53 PM 69.1 °F - 43.0 °F 39% 29.98 in 10.0 mi ESE 16.1 mph - N/A   Clear
4:53 PM 68.0 °F - 42.1 °F 39% 29.97 in 10.0 mi East 12.7 mph - N/A   Clear
5:53 PM 66.9 °F - 39.9 °F 37% 29.95 in 10.0 mi ESE 15.0 mph - N/A   Clear
6:53 PM 64.9 °F - 39.0 °F 39% 29.95 in 10.0 mi ESE 17.3 mph - N/A   Clear
7:53 PM 63.0 °F - 37.0 °F 38% 29.96 in 10.0 mi East 15.0 mph 21.9 mph N/A   Clear
8:53 PM 59.0 °F - 36.0 °F 42% 29.97 in 10.0 mi East 11.5 mph - N/A   Scattered Clouds
9:53 PM 57.0 °F - 35.1 °F 44% 29.96 in 10.0 mi East 18.4 mph 25.3 mph N/A   Clear
10:53 PM 54.0 °F - 35.1 °F 49% 29.98 in 10.0 mi East 12.7 mph - N/A   Clear
11:53 PM 54.0 °F - 35.1 °F 49% 29.97 in 10.0 mi East 13.8 mph - N/A   Clear